User: anonymous   Login
Location: Unspecified
(0.0000°N, 0.0000°E)
Time: 19:59:52
(UTC+00:00)
Language:

OBJECT NV - Orbit

View from above orbital plane
View from above orbital plane
View from above satellite
View from above satellite

Ground track
Ground track

The orbit data is extracted from the following two-line orbital elements,

1 43547U 98067NV  18350.89489550 +.00003033 +00000-0 +49713-4 0  9995
2 43547 051.6381 186.5565 0006510 150.9119 209.2236 15.55989502023944
Epoch (UTC): 16 December 2018 21:28:38
Eccentricity: 0.0006510
inclination: 51.6381°
perigee height: 395 km
apogee height: 403 km
right ascension of ascending node: 186.5565°
argument of perigee: 150.9119°
revolutions per day: 15.55989502
mean anomaly at epoch: 209.2236°
orbit number at epoch: 2394

The dashed part of the orbit path shows where the satellite is in the earth's shadow,  

DLR